Weather in Berezniki

Russia / Vladimir Oblast     55°52′18″N   40°06′10″E
temp.,
°C
wind,
m/s
gust,
m/s
humid.,
%
clouds,
%
prec.,
mm/h
press.,
hPa
HPBL,
m
3 march, wed
wed300:00−2nw3119595 0.1 1008662
03:00−5nnw4128989 0.3 1011477
06:00−7nw4129213 0.0 1012430
09:00−5nw5118941 0.0 1014772
12:00−2nw598451 0.0 10131006
15:00−1wnw488676 0.2 1012920
18:00−1w41089100 0.1 1011773
21:00−2w41291100 0.2 1010721
4 march, thu
thu400:00−2wsw51191100 0.1 1006769
03:00−1wsw61394100 0.4 1003798
06:00+1w71497100 1.6 10001080
09:00+1w71496100 1.9 9991139
12:000wnw51178100 1.3 9991004
15:000wnw4775100 1.3 10001010
18:00−3wnw2387100 0.0 100079
21:00−5n2294100 0.0 100151
5 march, fri
fri500:00−7nnw2293100 0.0 100153
03:00−9nnw2596100 0.0 1003108
06:00−12nnw229740 0.0 100523
09:00−9nnw129330 0.0 1006140
12:00−4w128159 0.0 1007522
15:00−3wsw247978 0.1 1008882
18:00−5s129589 0.3 100945
21:00−6nnw4108594 2.4 1011506
6 march, sat
sat600:00−11wnw249448 0.0 101283
03:00−12wnw259524 0.0 1013108
06:00−14nw23960 0.0 101443
09:00−12nnw359330 0.1 1015305
12:00−9nnw367879 0.0 1016880
15:00−8nw357486 0.1 10161031
18:00−11w238887 0.0 101639
21:00−13wsw369154 0.0 1016119
7 march, sun
sun700:00−13sw39910 0.0 1014225
03:00−12ssw4119112 0.0 1011345
06:00−9sw6148893 0.1 1006777
09:00−7sw8159297 1.0 10011084
12:00−4sw81592100 1.6 9971236
15:00−2sw71590100 2.1 9941326
18:00−6nw2994100 4.0 992643
21:00−6w3887100 4.9 994492